[Date Prev][Date Next][Thread Prev][Thread Next] - [Date Index][Thread Index][Author Index]
2 Line ISS Keps 11-16
- Subject: [sarex] 2 Line ISS Keps 11-16
- From: "Dave Larsen PhD" <doc@xxxxxxxxxxx>
- Date: Tue, 16 Nov 2004 02:05:57 -0800
ISS
1 25544U 98067A 04321.24600193 .00024512 00000-0 19488-3 0 1545
2 25544 51.6358 269.7697 0008394 2.2969 103.5382 15.71043753342207
----
Via the sarex mailing list at AMSAT.ORG courtesy of AMSAT-NA.
To unsubscribe, send "unsubscribe sarex" to Majordomo@amsat.org
AMSAT Home